CW3518 Weather Reports


time (UTC)temp
C
wind
direction
speed
KPH
gust
KPH
rain 1hr
cm
rain 24hr
cm
rain mn
cm
humidity
%
barometer
mb
20260902040956 30 95 4.8 8.0 0.00 0.00 0.00 53 1015.0
20260902040526 30 90 4.8 8.0 0.00 0.00 0.00 52 1015.0
20260902040026 30 107 8.0 11.3 0.00 0.00 0.00 52 1015.0
20260902035526 31 82 4.8 12.9 0.00 0.00 0.00 51 1015.0
20260902035026 31 120 11.3 12.9 0.00 0.00 0.00 50 1015.0
20260902034526 31 123 9.7 11.3 0.00 0.00 0.00 50 1015.0
20260902034026 31 126 9.7 11.3 0.00 0.00 0.00 50 1015.1
20260902033026 31 145 6.4 6.4 0.00 0.00 0.00 50 1015.0
20260902032525 31 167 6.4 6.4 0.00 0.00 0.00 50 1015.0
20260902031956 31 171 4.8 6.4 0.00 0.00 0.00 50 1015.0
20260902031455 31 179 4.8 6.4 0.00 0.00 0.00 49 1014.9
20260902030955 31 189 4.8 6.4 0.00 0.00 0.00 49 1014.9
20260902030456 31 197 4.8 4.8 0.00 0.00 0.00 49 1014.8
20260902030025 31 199 4.8 6.4 0.00 0.00 0.00 49 1014.8
20260902025526 31 168 4.8 6.4 0.00 0.00 0.00 49 1014.7
20260902025025 31 170 4.8 8.0 0.00 0.00 0.00 49 1014.6
20260902024526 31 131 6.4 8.0 0.00 0.00 0.00 49 1014.5
20260902024028 31 128 8.0 8.0 0.00 0.00 0.00 49 1014.4
20260902023525 31 147 8.0 8.0 0.00 0.00 0.00 49 1014.4
20260902022955 31 156 8.0 8.0 0.00 0.00 0.00 49 1014.3
20260902022525 31 174 4.8 9.7 0.00 0.00 0.00 50 1014.2
20260902022025 31 141 8.0 9.7 0.00 0.00 0.00 49 1014.1
20260902021525 31 131 8.0 9.7 0.00 0.00 0.00 49 1014.1
20260902021025 31 127 9.7 11.3 0.00 0.00 0.00 48 1014.0
20260902020455 31 132 8.0 11.3 0.00 0.00 0.00 48 1013.9
20260902020025 31 140 8.0 11.3 0.00 0.00 0.00 48 1013.7
20260902015456 31 126 9.7 12.9 0.00 0.00 0.00 47 1013.6
20260902015026 31 128 9.7 14.5 0.00 0.00 0.00 47 1013.5
20260902013955 32 131 12.9 14.5 0.00 0.00 0.00 45 1013.4
20260902012954 32 135 12.9 16.1 0.00 0.00 0.00 44 1013.2
20260902012524 32 137 12.9 12.9 0.00 0.00 0.00 43 1013.3
20260902012024 33 131 11.3 12.9 0.00 0.00 0.00 42 1013.3
20260902011524 33 133 8.0 8.0 0.00 0.00 0.00 42 1013.2
20260902011024 33 122 8.0 9.7 0.00 0.00 0.00 42 1013.2
20260902010524 33 124 6.4 9.7 0.00 0.00 0.00 41 1013.2
20260902010024 33 122 8.0 9.7 0.00 0.00 0.00 41 1013.2
20260902005524 33 129 6.4 11.3 0.00 0.00 0.00 40 1013.2
20260902005024 34 137 8.0 14.5 0.00 0.00 0.00 40 1013.2
20260902004524 34 139 9.7 14.5 0.00 0.00 0.00 40 1013.2
20260902004024 34 124 9.7 14.5 0.00 0.00 0.00 39 1013.2
20260902003524 35 135 9.7 16.1 0.00 0.00 0.00 39 1013.2
20260902003024 35 145 11.3 16.1 0.00 0.00 0.00 39 1013.3
20260902002524 35 126 12.9 19.3 0.00 0.00 0.00 38 1013.3
20260902001954 35 144 11.3 19.3 0.00 0.00 0.00 37 1013.4
20260902001525 35 155 14.5 17.7 0.00 0.00 0.00 36 1013.4
20260902001024 35 135 14.5 20.9 0.00 0.00 0.00 36 1013.4
20260902000453 35 149 14.5 20.9 0.00 0.00 0.00 36 1013.5
20260902000024 35 126 14.5 20.9 0.00 0.00 0.00 37 1013.4
20260901235524 35 131 19.3 24.1 0.00 0.00 0.00 36 1013.4
20260901234953 35 134 17.7 24.1 0.00 0.00 0.00 36 1013.5
20260901234523 36 135 20.9 24.1 0.00 0.00 0.00 35 1013.5
20260901234023 35 131 16.1 27.4 0.00 0.00 0.00 35 1013.5
20260901233023 36 120 19.3 25.7 0.00 0.00 0.00 35 1013.6
20260901232454 36 148 14.5 22.5 0.00 0.00 0.00 34 1013.7
20260901232024 36 101 14.5 24.1 0.00 0.00 0.00 35 1013.7
20260901231523 36 110 16.1 24.1 0.00 0.00 0.00 34 1013.6
20260901231023 36 108 17.7 24.1 0.00 0.00 0.00 34 1013.7
20260901230023 36 98 11.3 24.1 0.00 0.00 0.00 34 1013.7
20260901225523 36 127 14.5 24.1 0.00 0.00 0.00 34 1013.7
20260901225023 36 102 16.1 20.9 0.00 0.00 0.00 34 1013.7
20260901224523 36 105 19.3 20.9 0.00 0.00 0.00 34 1013.7
20260901224023 36 152 11.3 30.6 0.00 0.00 0.00 34 1013.7
20260901223023 36 92 17.7 29.0 0.00 0.00 0.00 34 1013.7
20260901222523 36 138 16.1 29.0 0.00 0.00 0.00 34 1013.7
20260901221523 36 117 16.1 19.3 0.00 0.00 0.00 34 1013.9
20260901220523 36 120 14.5 27.4 0.00 0.00 0.00 34 1013.9
20260901220022 36 152 17.7 29.0 0.00 0.00 0.00 33 1013.9
20260901215523 36 99 14.5 29.0 0.00 0.00 0.00 34 1014.0
20260901215022 36 176 19.3 22.5 0.00 0.00 0.00 34 1014.0
20260901214022 36 132 12.9 24.1 0.00 0.00 0.00 35 1014.2
20260901213522 36 137 16.1 24.1 0.00 0.00 0.00 35 1014.2
20260901213023 36 87 16.1 24.1 0.00 0.00 0.00 34 1014.1
20260901212525 36 156 19.3 25.7 0.00 0.00 0.00 35 1014.0
20260901212023 36 115 14.5 25.7 0.00 0.00 0.00 35 1014.2
20260901211522 36 104 12.9 25.7 0.00 0.00 0.00 35 1014.3
20260901210522 36 136 22.5 22.5 0.00 0.00 0.00 36 1014.3
20260901205525 36 171 11.3 17.7 0.00 0.00 0.00 37 1014.4
20260901205025 35 174 12.9 24.1 0.00 0.00 0.00 37 1014.5
20260901204524 35 173 12.9 24.1 0.00 0.00 0.00 38 1014.6
20260901203521 35 133 14.5 24.1 0.00 0.00 0.00 37 1014.7
20260901203025 36 94 12.9 19.3 0.00 0.00 0.00 37 1014.7
20260901202022 36 115 17.7 25.7 0.00 0.00 0.00 37 1014.8
20260901201523 35 192 14.5 30.6 0.00 0.00 0.00 38 1014.9
20260901200523 35 208 9.7 25.7 0.00 0.00 0.00 38 1015.1
20260901200021 35 128 11.3 25.7 0.00 0.00 0.00 38 1015.1
20260901195521 35 87 11.3 27.4 0.00 0.00 0.00 39 1015.1
20260901195021 35 99 27.4 29.0 0.00 0.00 0.00 39 1015.1
20260901194521 35 145 9.7 29.0 0.00 0.00 0.00 39 1015.2
20260901194020 36 123 25.7 29.0 0.00 0.00 0.00 38 1015.1
20260901193020 34 77 12.9 25.7 0.00 0.00 0.00 40 1015.3
20260901192520 34 99 14.5 25.7 0.00 0.00 0.00 40 1015.4
20260901191520 35 165 4.8 24.1 0.00 0.00 0.00 38 1015.5
20260901190520 35 150 11.3 20.9 0.00 0.00 0.00 38 1015.7
20260901190020 36 174 14.5 20.9 0.00 0.00 0.00 35 1015.7
20260901185520 35 140 11.3 19.3 0.00 0.00 0.00 38 1015.8
20260901185020 35 259 4.8 25.7 0.00 0.00 0.00 39 1015.8
20260901184520 35 172 20.9 25.7 0.00 0.00 0.00 38 1015.9
20260901184020 35 94 14.5 24.1 0.00 0.00 0.00 40 1016.1
20260901183520 35 127 24.1 24.1 0.00 0.00 0.00 40 1016.1
20260901183021 34 132 4.8 19.3 0.00 0.00 0.00 42 1016.3
20260901182520 34 93 11.3 24.1 0.00 0.00 0.00 41 1016.3
20260901182019 34 229 14.5 25.7 0.00 0.00 0.00 41 1016.3
20260901181519 34 148 16.1 25.7 0.00 0.00 0.00 42 1016.4
20260901180019 34 144 24.1 25.7 0.00 0.00 0.00 41 1016.6
20260901175520 35 121 17.7 24.1 0.00 0.00 0.00 41 1016.6
20260901175019 34 130 12.9 22.5 0.00 0.00 0.00 43 1016.8
20260901174519 34 155 14.5 22.5 0.00 0.00 0.00 44 1016.8
20260901174019 33 208 14.5 22.5 0.00 0.00 0.00 44 1016.9
20260901173519 34 124 14.5 22.5 0.00 0.00 0.00 43 1016.9
20260901173019 34 94 17.7 27.4 0.00 0.00 0.00 44 1017.0
20260901172519 33 152 4.8 27.4 0.00 0.00 0.00 45 1017.1
20260901171519 33 220 14.5 17.7 0.00 0.00 0.00 44 1017.2
20260901171019 33 226 8.0 20.9 0.00 0.00 0.00 45 1017.3
20260901170019 33 249 9.7 19.3 0.00 0.00 0.00 45 1017.4
20260901165519 34 153 14.5 16.1 0.00 0.00 0.00 45 1017.4
20260901165019 33 112 4.8 17.7 0.00 0.00 0.00 46 1017.4
20260901164519 33 102 14.5 17.7 0.00 0.00 0.00 46 1017.5
20260901164019 33 211 3.2 14.5 0.00 0.00 0.00 46 1017.5
20260901163519 32 144 11.3 19.3 0.00 0.00 0.00 48 1017.5
20260901162519 33 137 9.7 16.1 0.00 0.00 0.00 47 1017.6
20260901161519 32 213 12.9 22.5 0.00 0.00 0.00 48 1017.6
20260901161019 32 228 9.7 20.9 0.00 0.00 0.00 49 1017.7
20260901160519 32 187 12.9 20.9 0.00 0.00 0.00 49 1017.6
20260901160019 32 249 11.3 19.3 0.00 0.00 0.00 50 1017.6
20260901155519 32 169 6.4 19.3 0.00 0.00 0.00 50 1017.6
20260901155018 32 204 11.3 16.1 0.00 0.00 0.00 50 1017.6
20260901154548 32 207 12.9 16.1 0.00 0.00 0.00 51 1017.7
20260901154018 32 199 11.3 16.1 0.00 0.00 0.00 51 1017.6
20260901153518 32 192 6.4 16.1 0.00 0.00 0.00 52 1017.6
20260901153019 31 201 8.0 17.7 0.00 0.00 0.00 53 1017.5
20260901152518 31 160 9.7 17.7 0.00 0.00 0.00 53 1017.5
20260901152018 31 221 17.7 17.7 0.00 0.00 0.00 54 1017.5
20260901151518 31 138 9.7 16.1 0.00 0.00 0.00 55 1017.6
20260901151018 31 242 8.0 17.7 0.00 0.00 0.00 55 1017.6
20260901150518 31 289 3.2 17.7 0.00 0.00 0.00 56 1017.6
20260901150018 30 232 8.0 19.3 0.00 0.00 0.00 57 1017.6
20260901145518 30 225 14.5 19.3 0.00 0.00 0.00 57 1017.6
20260901145018 30 199 8.0 16.1 0.00 0.00 0.00 58 1017.7
20260901144518 30 220 14.5 16.1 0.00 0.00 0.00 57 1017.7
20260901144019 30 183 8.0 14.5 0.00 0.00 0.00 57 1017.7
20260901143518 30 223 9.7 14.5 0.00 0.00 0.00 58 1017.7
20260901143018 30 190 12.9 14.5 0.00 0.00 0.00 58 1017.7
20260901142018 29 233 9.7 12.9 0.00 0.00 0.00 59 1017.7
20260901141518 29 141 4.8 12.9 0.00 0.00 0.00 60 1017.7
20260901140518 29 227 12.9 14.5 0.00 0.00 0.00 60 1017.7
20260901140017 28 179 8.0 12.9 0.00 0.00 0.00 61 1017.6
20260901135518 28 224 4.8 11.3 0.00 0.00 0.00 61 1017.6
20260901135017 28 198 6.4 9.7 0.00 0.00 0.00 62 1017.6
20260901134517 28 191 6.4 11.3 0.00 0.00 0.00 62 1017.6
20260901134017 27 165 4.8 11.3 0.00 0.00 0.00 63 1017.6
20260901133517 27 214 9.7 9.7 0.00 0.00 0.00 63 1017.5
20260901133018 27 191 6.4 9.7 0.00 0.00 0.00 64 1017.5
20260901132517 27 193 6.4 9.7 0.00 0.00 0.00 65 1017.5
20260901132017 27 176 8.0 9.7 0.00 0.00 0.00 66 1017.5
20260901131517 27 180 9.7 9.7 0.00 0.00 0.00 67 1017.5
20260901131017 26 193 8.0 8.0 0.00 0.00 0.00 68 1017.4
20260901130517 26 178 8.0 9.7 0.00 0.00 0.00 68 1017.5
20260901130017 26 131 6.4 9.7 0.00 0.00 0.00 69 1017.5
20260901125518 26 121 8.0 9.7 0.00 0.00 0.00 70 1017.4
20260901125017 25 128 8.0 8.0 0.00 0.00 0.00 70 1017.4
20260901124517 25 226 4.8 9.7 0.00 0.00 0.00 71 1017.3
20260901124017 25 146 4.8 9.7 0.00 0.00 0.00 71 1017.2
20260901123517 25 127 8.0 9.7 0.00 0.00 0.00 70 1017.2
20260901122517 25 166 6.4 9.7 0.00 0.00 0.00 70 1017.0
20260901122017 25 150 4.8 9.7 0.00 0.00 0.00 71 1016.9
20260901121017 25 99 8.0 9.7 0.00 0.00 0.00 72 1016.9
20260901120517 25 81 8.0 9.7 0.00 0.00 0.00 72 1016.9
20260901120016 25 73 8.0 8.0 0.00 0.00 0.00 69 1016.9
20260901115017 25 130 6.4 9.7 0.00 0.00 0.00 69 1016.8
20260901114016 25 251 9.7 11.3 0.00 0.00 0.00 69 1016.6
20260901113516 25 255 9.7 11.3 0.00 0.00 0.00 70 1016.6
20260901113016 25 252 8.0 11.3 0.00 0.00 0.00 70 1016.5
20260901112516 25 240 9.7 14.5 0.00 0.00 0.00 71 1016.5
20260901112016 25 241 8.0 14.5 0.00 0.00 0.00 70 1016.5
20260901111516 25 248 11.3 14.5 0.00 0.00 0.00 70 1016.4
20260901110516 26 247 12.9 12.9 0.00 0.00 0.00 69 1016.5
20260901105516 26 241 8.0 11.3 0.00 0.00 0.00 68 1016.5
20260901105016 26 255 9.7 11.3 0.00 0.00 0.00 67 1016.5
20260901104516 26 256 9.7 11.3 0.00 0.00 0.00 67 1016.5
20260901104016 26 257 9.7 11.3 0.00 0.00 0.00 66 1016.5
20260901103515 26 247 9.7 11.3 0.00 0.00 0.00 66 1016.5
20260901103016 26 244 9.7 9.7 0.00 0.00 0.00 65 1016.4
20260901102515 26 234 9.7 11.3 0.00 0.00 0.00 64 1016.5
20260901102015 26 212 9.7 11.3 0.00 0.00 0.00 64 1016.5
20260901101515 26 210 11.3 11.3 0.00 0.00 0.00 63 1016.5
20260901101015 26 206 9.7 11.3 0.00 0.00 0.00 63 1016.5
20260901100515 26 205 9.7 9.7 0.00 0.00 0.00 63 1016.5
20260901095515 26 199 8.0 9.7 0.00 0.00 0.00 63 1016.5
20260901095015 26 193 8.0 11.3 0.00 0.00 0.00 62 1016.5
20260901094515 26 178 9.7 11.3 0.00 0.00 0.00 62 1016.5
20260901094015 26 197 8.0 8.0 0.00 0.00 0.00 62 1016.6
20260901093515 26 177 6.4 9.7 0.00 0.00 0.00 63 1016.6
20260901092515 26 170 9.7 11.3 0.00 0.00 0.00 62 1016.6
20260901092015 26 151 8.0 11.3 0.00 0.00 0.00 62 1016.6
20260901091514 26 166 9.7 12.9 0.00 0.00 0.00 61 1016.6
20260901091014 27 143 8.0 14.5 0.00 0.00 0.00 61 1016.5
20260901085514 27 143 11.3 14.5 0.00 0.00 0.00 60 1016.5
20260901085015 27 144 11.3 12.9 0.00 0.00 0.00 60 1016.5
20260901084514 27 133 9.7 11.3 0.00 0.00 0.00 60 1016.4
20260901084014 27 144 11.3 12.9 0.00 0.00 0.00 59 1016.4
20260901083515 27 137 8.0 12.9 0.00 0.00 0.00 59 1016.4
20260901083014 27 140 11.3 11.3 0.00 0.00 0.00 59 1016.4
20260901082515 27 129 9.7 12.9 0.00 0.00 0.00 59 1016.3
20260901082015 27 136 11.3 12.9 0.00 0.00 0.00 59 1016.2
20260901081514 27 129 11.3 12.9 0.00 0.00 0.00 59 1016.2
20260901081014 27 129 12.9 12.9 0.00 0.00 0.00 58 1016.1
20260901080514 27 123 9.7 11.3 0.00 0.00 0.00 58 1016.1
20260901080014 27 119 9.7 11.3 0.00 0.00 0.00 58 1016.1
20260901075514 27 125 11.3 11.3 0.00 0.00 0.00 58 1016.1
20260901075015 27 115 8.0 11.3 0.00 0.00 0.00 58 1016.1
20260901074014 26 78 6.4 8.0 0.00 0.00 0.00 58 1016.1
20260901073514 27 71 6.4 11.3 0.00 0.00 0.00 57 1016.1
20260901072013 27 101 8.0 9.7 0.00 0.00 0.00 56 1016.2
20260901071514 27 96 8.0 9.7 0.00 0.00 0.00 57 1016.2
20260901070513 27 84 8.0 11.3 0.00 0.00 0.00 56 1016.1
20260901070013 27 81 9.7 11.3 0.00 0.00 0.00 55 1016.1
20260901065513 27 79 8.0 12.9 0.00 0.00 0.00 54 1016.1
20260901064513 27 95 9.7 11.3 0.00 0.00 0.00 53 1016.0
20260901064013 28 105 8.0 9.7 0.00 0.00 0.00 52 1016.0
20260901063514 28 103 8.0 8.0 0.00 0.00 0.00 53 1016.0
20260901063013 27 102 8.0 12.9 0.00 0.00 0.00 53 1016.0
20260901062514 27 76 4.8 16.1 0.00 0.00 0.00 53 1016.0
20260901062014 27 56 9.7 16.1 0.00 0.00 0.00 52 1016.1
20260901061013 28 35 8.0 9.7 0.00 0.00 0.00 49 1015.8
20260901060513 28 29 8.0 9.7 0.00 0.00 0.00 48 1015.7
20260901060013 28 33 8.0 9.7 0.00 0.00 0.00 48 1015.7
20260901055513 28 37 8.0 11.3 0.00 0.00 0.00 47 1015.7
20260901055013 28 36 8.0 19.3 0.00 0.00 0.00 48 1015.7
20260901054513 28 62 11.3 19.3 0.00 0.00 0.00 47 1015.7
20260901054013 29 74 12.9 12.9 0.00 0.00 0.00 45 1015.6
20260901053513 30 200 4.8 6.4 0.00 0.00 0.00 44 1015.5
20260901053013 30 191 4.8 6.4 0.00 0.00 0.00 44 1015.4
20260901052513 30 183 6.4 6.4 0.00 0.00 0.00 43 1015.4
20260901052013 30 180 6.4 8.0 0.00 0.00 0.00 43 1015.3
20260901051513 30 185 6.4 8.0 0.00 0.00 0.00 43 1015.3
20260901051013 30 164 8.0 9.7 0.00 0.00 0.00 43 1015.3
20260901050513 30 163 8.0 9.7 0.00 0.00 0.00 42 1015.3
20260901050013 30 169 8.0 11.3 0.00 0.00 0.00 42 1015.3
20260901045513 30 165 9.7 11.3 0.00 0.00 0.00 42 1015.3
20260901045013 30 164 9.7 11.3 0.00 0.00 0.00 42 1015.3
20260901044012 30 164 9.7 11.3 0.00 0.00 0.00 42 1015.2
20260901043513 30 145 9.7 9.7 0.00 0.00 0.00 42 1015.1
20260901043012 30 135 8.0 9.7 0.00 0.00 0.00 42 1015.1
20260901042512 30 140 8.0 8.0 0.00 0.00 0.00 42 1015.1
20260901042012 30 126 6.4 8.0 0.00 0.00 0.00 42 1015.1
20260901041512 30 117 6.4 6.4 0.00 0.00 0.00 43 1015.2